Flag for U.S.A. Weather past 2 weeks in Duluth, Minnesota, U.S.A.

Now
46 °F

Clear.


Feels Like: 41 °F
Forecast: 44 / 66 °F
Wind: 12 mph from Southwest

Location: Sky Harbor Airport

Current Time: Sep 16, 2014 at 2:33:11 AM

Latest Report: Sep 16, 2014 at 1:53 AM


Visibility: 10 mi

Pressure: 30.14 "Hg

Humidity: 76%

Dew point: 39 °F

Location of DuluthLocation

Historic Weather in Duluth — Graph

°F

Duluth temperature yesterday

Maximum temperature yesterday: 61 °F (at 3:53 PM)
Minimum temperature yesterday: 43 °F (at 4:53 AM)
Average temperature yesterday: 52 °F

Past Weeks' High & Low Weather Summary

 TemperatureHumidityPressure
High79 °F (Sep 7, 2:13 PM)100% (Sep 10, 6:53 AM)30.44 "Hg (Sep 10, 6:53 AM)
Low37 °F (Sep 13, 6:34 AM)39% (Sep 15, 3:34 PM)29.56 "Hg (Sep 1, 4:13 AM)
Average59 °F74%30.00 "Hg
* Reported Sep 1 1:14 AM — Sep 16 1:33 AM, Duluth, Weather by CustomWeather, © 2014

Note: Actual official high and low records may vary slightly from our data, if they occured in-between our weather recording intervals... More about our weather records

Advertising

Duluth weather history for previous 24 hours

 ConditionsComfort  
Time TempWeatherWind HumidityBarometerVisibility
1:33 AM
Sep 16
45 °FClear.9 mph81%30.14 "Hg10 mi
1:14 AM45 °FClear.9 mph81%30.14 "Hg10 mi
12:53 AM45 °FClear.10 mph81%30.14 "Hg10 mi
12:34 AM46 °FClear.10 mph82%30.15 "Hg10 mi
12:13 AM46 °FClear.10 mph82%30.15 "Hg10 mi
11:53 PM
Sep 15
46 °FClear.9 mph82%30.15 "Hg10 mi
11:34 PM46 °FClear.9 mph82%30.16 "Hg10 mi
11:13 PM46 °FClear.9 mph82%30.16 "Hg10 mi
10:53 PM46 °FClear.9 mph82%30.16 "Hg10 mi
10:34 PM46 °FClear.9 mph87%30.16 "Hg10 mi
9:53 PM50 °FClear.9 mph76%30.16 "Hg10 mi
9:33 PM52 °FClear.8 mph72%30.16 "Hg10 mi
9:13 PM52 °FClear.7 mph77%30.16 "Hg10 mi
8:54 PM52 °FClear.6 mph72%30.16 "Hg10 mi
8:14 PM55 °FSunny.7 mph63%30.16 "Hg10 mi
7:53 PM55 °FSunny.7 mph63%30.16 "Hg10 mi
7:33 PM55 °FSunny.7 mph59%30.16 "Hg10 mi
7:14 PM57 °FScattered clouds.7 mph51%30.16 "Hg10 mi
6:53 PM57 °FScattered clouds.8 mph51%30.16 "Hg10 mi
6:33 PM59 °FSunny.7 mph48%30.16 "Hg10 mi
6:14 PM59 °FScattered clouds.8 mph48%30.16 "Hg10 mi
5:53 PM61 °FPartly sunny.9 mph42%30.16 "Hg10 mi
5:33 PM59 °FScattered clouds.9 mph45%30.16 "Hg10 mi
5:14 PM61 °FSunny.8 mph39%30.16 "Hg10 mi
4:53 PM59 °FScattered clouds.6 mph45%30.16 "Hg10 mi
4:34 PM59 °FScattered clouds.8 mph42%30.16 "Hg10 mi
4:13 PM59 °FScattered clouds.7 mph42%30.16 "Hg10 mi
3:53 PM61 °FScattered clouds.9 mph39%30.16 "Hg10 mi
3:34 PM59 °FScattered clouds.9 mph39%30.17 "Hg10 mi
3:13 PM57 °FScattered clouds.10 mph44%30.17 "Hg10 mi
2:54 PM59 °FScattered clouds.10 mph42%30.18 "Hg10 mi
2:34 PM59 °FOvercast.12 mph42%30.18 "Hg10 mi
2:13 PM57 °FPartly sunny.14 mph44%30.18 "Hg10 mi
1:54 PM57 °FPartly sunny.10 mph41%30.19 "Hg10 mi
1:33 PM57 °FOvercast.7 mph41%30.19 "Hg10 mi
12:54 PM55 °FOvercast.10 mph47%30.19 "Hg10 mi
12:33 PM55 °FOvercast.13 mph51%30.20 "Hg10 mi
12:14 PM55 °FOvercast.13 mph51%30.19 "Hg10 mi
11:53 AM55 °FOvercast.10 mph47%30.19 "Hg10 mi
11:34 AM55 °FPartly sunny.14 mph47%30.19 "Hg10 mi
11:13 AM55 °FScattered clouds.8 mph47%30.19 "Hg10 mi
10:53 AM55 °FScattered clouds.6 mph51%30.19 "Hg10 mi
10:34 AM55 °FSunny.8 mph51%30.19 "Hg10 mi
10:13 AM55 °FSunny.10 mph51%30.19 "Hg10 mi
9:54 AM54 °FSunny.9 mph67%30.19 "Hg10 mi
9:14 AM52 °FSunny.6 mph77%30.19 "Hg10 mi
8:53 AM48 °FScattered clouds.5 mph87%30.19 "Hg10 mi
8:33 AM46 °FPartly sunny.7 mph87%30.19 "Hg10 mi
8:14 AM45 °FOvercast.6 mph93%30.19 "Hg10 mi
7:54 AM45 °FOvercast.7 mph93%30.19 "Hg10 mi
7:33 AM43 °FOvercast.6 mph93%30.18 "Hg10 mi
7:14 AM43 °FPassing clouds.7 mph93%30.18 "Hg10 mi
6:53 AM43 °FClear.6 mph87%30.17 "Hg10 mi
6:33 AM43 °FClear.6 mph93%30.16 "Hg10 mi
6:14 AM45 °FPassing clouds.6 mph93%30.15 "Hg10 mi
5:53 AM46 °FOvercast.7 mph93%30.15 "Hg10 mi
5:33 AM46 °FMostly cloudy.6 mph93%30.14 "Hg10 mi
5:14 AM43 °FMostly cloudy.3 mph93%30.14 "Hg10 mi
4:53 AM43 °FPassing clouds.7 mph93%30.13 "Hg10 mi
4:33 AM45 °FClear.7 mph87%30.13 "Hg10 mi
4:13 AM45 °FClear.9 mph93%30.13 "Hg10 mi
3:54 AM45 °FClear.8 mph93%30.12 "Hg10 mi
3:33 AM45 °FClear.9 mph93%30.12 "Hg10 mi
2:53 AM46 °FPassing clouds.7 mph93%30.12 "Hg10 mi
2:33 AM45 °FPassing clouds.7 mph93%30.13 "Hg10 mi
2:14 AM46 °FPassing clouds.7 mph87%30.13 "Hg10 mi
Weather by CustomWeather, © 2014

See weather overviewHow to use our weather pages